Time,TemperatureF,DewpointF,PressureIn,WindDirection,WindDirectionDegrees,WindSpeedMPH,WindSpeedGustMPH,Humidity,HourlyPrecipIn,Conditions,Clouds,dailyrainin,SoftwareType,DateUTC
2013-02-19 00:02:00,21.0,2.0,30.10,NNW,333,2.0,2.0,42,0.00,,,0.00,,2013-02-19 05:02:00,
2013-02-19 00:13:00,21.0,2.0,30.10,NNW,333,2.0,2.0,42,0.00,,,0.00,,2013-02-19 05:13:00,
2013-02-19 00:22:00,21.0,1.0,30.11,NNW,333,0.0,2.0,41,0.00,,,0.00,,2013-02-19 05:22:00,
2013-02-19 00:32:00,21.0,2.0,30.11,NNW,333,0.0,1.0,42,0.00,,,0.00,,2013-02-19 05:32:00,
2013-02-19 00:43:00,21.0,2.0,30.11,NNW,333,0.0,1.0,42,0.00,,,0.00,,2013-02-19 05:43:00,
2013-02-19 00:52:00,21.0,2.0,30.11,NNW,333,1.0,2.0,43,0.00,,,0.00,,2013-02-19 05:52:00,
2013-02-19 01:02:00,21.0,2.0,30.11,NNW,333,2.0,2.0,43,0.00,,,0.00,,2013-02-19 06:02:00,
2013-02-19 01:12:00,21.0,2.0,30.11,NNW,333,2.0,2.0,43,0.00,,,0.00,,2013-02-19 06:12:00,
2013-02-19 01:22:00,21.0,1.0,30.11,NNW,333,0.0,2.0,41,0.00,,,0.00,,2013-02-19 06:22:00,
2013-02-19 01:32:00,21.0,1.0,30.12,NNW,333,0.0,2.0,41,0.00,,,0.00,,2013-02-19 06:32:00,
2013-02-19 01:42:00,21.0,1.0,30.12,NNW,333,0.0,2.0,41,0.00,,,0.00,,2013-02-19 06:42:00,
2013-02-19 01:53:00,21.0,2.0,30.11,NNW,333,1.0,1.0,42,0.00,,,0.00,,2013-02-19 06:53:00,
2013-02-19 02:01:00,21.0,2.0,30.12,NNW,333,1.0,3.0,43,0.00,,,0.00,,2013-02-19 07:01:00,
2013-02-19 02:11:00,21.0,2.0,30.12,NNW,333,1.0,3.0,43,0.00,,,0.00,,2013-02-19 07:11:00,
2013-02-19 02:22:00,21.0,2.0,30.12,NNW,333,0.0,1.0,43,0.00,,,0.00,,2013-02-19 07:22:00,
2013-02-19 02:32:00,21.0,2.0,30.12,NNW,333,0.0,2.0,42,0.00,,,0.00,,2013-02-19 07:32:00,
2013-02-19 02:42:00,21.0,2.0,30.12,NNW,333,0.0,2.0,42,0.00,,,0.00,,2013-02-19 07:42:00,
2013-02-19 02:52:00,21.0,2.0,30.11,NNW,333,0.0,0.0,42,0.00,,,0.00,,2013-02-19 07:52:00,
2013-02-19 03:02:00,21.0,2.0,30.10,NNW,333,0.0,0.0,43,0.00,,,0.00,,2013-02-19 08:02:00,
2013-02-19 03:11:00,21.0,2.0,30.10,NNW,333,0.0,0.0,43,0.00,,,0.00,,2013-02-19 08:11:00,
2013-02-19 03:22:00,21.0,3.0,30.11,NNW,333,0.0,1.0,44,0.00,,,0.00,,2013-02-19 08:22:00,
2013-02-19 03:32:00,21.0,4.0,30.10,NNW,333,0.0,2.0,47,0.00,,,0.00,,2013-02-19 08:32:00,
2013-02-19 03:42:00,21.0,4.0,30.10,NNW,333,0.0,2.0,47,0.00,,,0.00,,2013-02-19 08:42:00,
2013-02-19 03:52:00,21.0,4.0,30.09,NNW,333,0.0,0.0,47,0.00,,,0.00,,2013-02-19 08:52:00,
2013-02-19 04:02:00,21.0,4.0,30.08,NNW,333,0.0,0.0,47,0.00,,,0.00,,2013-02-19 09:02:00,
2013-02-19 04:11:00,21.0,4.0,30.08,NNW,333,0.0,0.0,47,0.00,,,0.00,,2013-02-19 09:11:00,
2013-02-19 04:22:00,21.0,4.0,30.08,NNW,333,0.0,0.0,47,0.00,,,0.00,,2013-02-19 09:22:00,
2013-02-19 04:32:00,21.0,5.0,30.08,NNW,333,0.0,0.0,50,0.00,,,0.00,,2013-02-19 09:32:00,
2013-02-19 04:42:00,21.0,5.0,30.08,NNW,333,0.0,0.0,50,0.00,,,0.00,,2013-02-19 09:42:00,
2013-02-19 04:53:00,22.0,6.0,30.08,NNW,333,0.0,0.0,49,0.00,,,0.00,,2013-02-19 09:53:00,
2013-02-19 05:02:00,22.0,6.0,30.08,NNW,333,0.0,0.0,50,0.00,,,0.00,,2013-02-19 10:02:00,
2013-02-19 05:11:00,22.0,6.0,30.08,NNW,333,0.0,0.0,50,0.00,,,0.00,,2013-02-19 10:11:00,
2013-02-19 05:22:00,22.0,8.0,30.08,NNW,333,0.0,1.0,55,0.00,,,0.00,,2013-02-19 10:22:00,
2013-02-19 05:32:00,22.0,6.0,30.08,NNW,333,0.0,0.0,50,0.00,,,0.00,,2013-02-19 10:32:00,
2013-02-19 05:42:00,22.0,6.0,30.08,NNW,333,0.0,0.0,50,0.00,,,0.00,,2013-02-19 10:42:00,
2013-02-19 05:52:00,22.0,7.0,30.08,NNW,333,0.0,0.0,51,0.00,,,0.00,,2013-02-19 10:52:00,
2013-02-19 06:01:00,22.0,7.0,30.08,NNW,333,0.0,0.0,52,0.00,,,0.00,,2013-02-19 11:01:00,
2013-02-19 06:11:00,22.0,7.0,30.08,NNW,333,0.0,0.0,52,0.00,,,0.00,,2013-02-19 11:11:00,
2013-02-19 06:22:00,22.0,8.0,30.08,NNW,333,0.0,0.0,54,0.00,,,0.00,,2013-02-19 11:22:00,
2013-02-19 06:32:00,22.0,7.0,30.07,NNW,333,0.0,0.0,52,0.00,,,0.00,,2013-02-19 11:32:00,
2013-02-19 06:42:00,22.0,7.0,30.07,NNW,333,0.0,0.0,52,0.00,,,0.00,,2013-02-19 11:42:00,
2013-02-19 06:52:00,22.0,7.0,30.06,NNW,333,0.0,0.0,52,0.00,,,0.00,,2013-02-19 11:52:00,
2013-02-19 07:02:00,22.0,7.0,30.06,NNW,333,1.0,1.0,51,0.00,,,0.00,,2013-02-19 12:02:00,
2013-02-19 07:12:00,22.0,7.0,30.06,NNW,333,1.0,1.0,51,0.00,,,0.00,,2013-02-19 12:12:00,
2013-02-19 07:22:00,22.0,7.0,30.06,NNW,333,0.0,1.0,52,0.00,,,0.00,,2013-02-19 12:22:00,
2013-02-19 07:32:00,22.0,7.0,30.06,NNW,333,0.0,1.0,52,0.00,,,0.00,,2013-02-19 12:32:00,
2013-02-19 07:42:00,22.0,7.0,30.06,NNW,333,0.0,1.0,52,0.00,,,0.00,,2013-02-19 12:42:00,
2013-02-19 07:52:00,22.0,7.0,30.06,NNW,333,0.0,0.0,52,0.00,,,0.00,,2013-02-19 12:52:00,
2013-02-19 08:02:00,22.0,7.0,30.06,NNW,333,0.0,0.0,52,0.00,,,0.00,,2013-02-19 13:02:00,
2013-02-19 08:11:00,22.0,7.0,30.06,NNW,333,0.0,0.0,52,0.00,,,0.00,,2013-02-19 13:11:00,
2013-02-19 08:22:00,23.0,8.0,30.04,WNW,290,0.0,3.0,52,0.00,,,0.00,,2013-02-19 13:22:00,
2013-02-19 08:32:00,24.0,9.0,30.05,WNW,290,0.0,0.0,52,0.00,,,0.00,,2013-02-19 13:32:00,
2013-02-19 08:42:00,24.0,9.0,30.05,WNW,290,0.0,0.0,52,0.00,,,0.00,,2013-02-19 13:42:00,
2013-02-19 08:52:00,25.0,10.0,30.05,West,259,0.0,2.0,53,0.00,,,0.00,,2013-02-19 13:52:00,
2013-02-19 09:01:00,28.0,13.0,30.05,West,271,0.0,4.0,52,0.00,,,0.00,,2013-02-19 14:01:00,
2013-02-19 09:12:00,28.0,13.0,30.05,West,271,0.0,4.0,52,0.00,,,0.00,,2013-02-19 14:12:00,
2013-02-19 09:22:00,29.0,13.0,30.04,WSW,246,0.0,2.0,51,0.00,,,0.00,,2013-02-19 14:22:00,
2013-02-19 09:33:00,30.0,15.0,30.03,West,259,3.0,4.0,52,0.00,,,0.00,,2013-02-19 14:33:00,
2013-02-19 09:42:00,30.0,15.0,30.03,West,259,3.0,4.0,52,0.00,,,0.00,,2013-02-19 14:42:00,
2013-02-19 09:52:00,32.0,16.0,30.03,West,272,2.0,5.0,52,0.00,,,0.00,,2013-02-19 14:52:00,
2013-02-19 10:02:00,33.0,17.0,30.03,West,265,0.0,6.0,51,0.00,,,0.00,,2013-02-19 15:02:00,
2013-02-19 10:11:00,33.0,17.0,30.03,West,265,0.0,6.0,51,0.00,,,0.00,,2013-02-19 15:11:00,
2013-02-19 10:21:00,35.0,19.0,30.02,SW,217,0.0,3.0,52,0.00,,,0.00,,2013-02-19 15:21:00,
2013-02-19 10:32:00,36.0,20.0,30.01,SW,232,0.0,4.0,52,0.00,,,0.00,,2013-02-19 15:32:00,
2013-02-19 10:42:00,36.0,20.0,30.01,SW,232,0.0,4.0,52,0.00,,,0.00,,2013-02-19 15:42:00,
2013-02-19 10:52:00,37.0,22.0,30.01,NW,325,1.0,6.0,55,0.00,,,0.00,,2013-02-19 15:52:00,
2013-02-19 11:02:00,38.0,23.0,30.00,West,259,2.0,5.0,55,0.00,,,0.00,,2013-02-19 16:02:00,
2013-02-19 11:11:00,38.0,23.0,30.00,West,259,2.0,5.0,55,0.00,,,0.00,,2013-02-19 16:11:00,
2013-02-19 11:22:00,38.0,23.0,30.00,WNW,301,3.0,9.0,55,0.00,,,0.00,,2013-02-19 16:22:00,
2013-02-19 11:32:00,40.0,26.0,29.99,West,264,0.0,6.0,56,0.00,,,0.00,,2013-02-19 16:32:00,
2013-02-19 11:42:00,40.0,26.0,29.99,West,264,0.0,6.0,56,0.00,,,0.00,,2013-02-19 16:42:00,
2013-02-19 11:52:00,41.0,26.0,29.98,West,261,1.0,5.0,54,0.00,,,0.00,,2013-02-19 16:52:00,
2013-02-19 12:01:00,42.0,27.0,29.96,West,276,1.0,7.0,54,0.00,,,0.00,,2013-02-19 17:01:00,
2013-02-19 12:11:00,42.0,27.0,29.96,West,276,1.0,7.0,54,0.00,,,0.00,,2013-02-19 17:11:00,
2013-02-19 12:21:00,43.0,27.0,29.95,West,271,1.0,3.0,52,0.00,,,0.00,,2013-02-19 17:21:00,
2013-02-19 12:32:00,44.0,27.0,29.94,SW,227,3.0,6.0,51,0.00,,,0.00,,2013-02-19 17:32:00,
2013-02-19 12:42:00,44.0,27.0,29.94,SW,227,3.0,6.0,51,0.00,,,0.00,,2013-02-19 17:42:00,
2013-02-19 12:52:00,45.0,28.0,29.93,WSW,238,0.0,6.0,51,0.00,,,0.00,,2013-02-19 17:52:00,
2013-02-19 13:01:00,45.0,27.0,29.91,WNW,295,1.0,7.0,50,0.00,,,0.00,,2013-02-19 18:01:00,
2013-02-19 13:11:00,45.0,27.0,29.91,WNW,295,1.0,7.0,50,0.00,,,0.00,,2013-02-19 18:11:00,
2013-02-19 13:21:00,46.0,29.0,29.91,WSW,254,4.0,9.0,51,0.00,,,0.00,,2013-02-19 18:21:00,
2013-02-19 13:32:00,46.0,29.0,29.90,WSW,258,8.0,10.0,52,0.00,,,0.00,,2013-02-19 18:32:00,
2013-02-19 13:42:00,46.0,30.0,29.89,SSW,208,2.0,10.0,53,0.00,,,0.00,,2013-02-19 18:42:00,
2013-02-19 13:51:00,46.0,30.0,29.89,SSW,208,2.0,10.0,53,0.00,,,0.00,,2013-02-19 18:51:00,
2013-02-19 14:01:00,46.0,29.0,29.88,West,262,5.0,7.0,52,0.00,,,0.00,,2013-02-19 19:01:00,
2013-02-19 14:11:00,46.0,29.0,29.88,West,262,5.0,7.0,52,0.00,,,0.00,,2013-02-19 19:11:00,
2013-02-19 14:21:00,47.0,29.0,29.87,WNW,300,1.0,4.0,50,0.00,,,0.00,,2013-02-19 19:21:00,
2013-02-19 14:32:00,46.0,28.0,29.86,West,261,2.0,6.0,50,0.00,,,0.00,,2013-02-19 19:32:00,
2013-02-19 14:42:00,46.0,28.0,29.86,West,261,2.0,6.0,50,0.00,,,0.00,,2013-02-19 19:42:00,
2013-02-19 14:52:00,46.0,29.0,29.85,WSW,245,6.0,14.0,51,0.00,,,0.00,,2013-02-19 19:52:00,
2013-02-19 15:02:00,46.0,30.0,29.85,WSW,246,2.0,7.0,54,0.00,,,0.00,,2013-02-19 20:02:00,
2013-02-19 15:12:00,46.0,30.0,29.85,WSW,246,2.0,7.0,54,0.00,,,0.00,,2013-02-19 20:12:00,
2013-02-19 15:22:00,45.0,30.0,29.84,West,269,5.0,12.0,56,0.00,,,0.00,,2013-02-19 20:22:00,
2013-02-19 15:32:00,45.0,31.0,29.83,SW,222,3.0,11.0,58,0.00,,,0.00,,2013-02-19 20:32:00,
2013-02-19 15:42:00,45.0,31.0,29.83,SW,222,3.0,11.0,58,0.00,,,0.00,,2013-02-19 20:42:00,
2013-02-19 15:52:00,45.0,32.0,29.82,WSW,254,2.0,9.0,59,0.00,,,0.00,,2013-02-19 20:52:00,
2013-02-19 16:02:00,45.0,32.0,29.80,West,278,0.0,5.0,60,0.00,,,0.00,,2013-02-19 21:02:00,
2013-02-19 16:11:00,45.0,32.0,29.80,West,278,0.0,5.0,60,0.00,,,0.00,,2013-02-19 21:11:00,
2013-02-19 16:21:00,45.0,33.0,29.80,WNW,300,1.0,12.0,63,0.00,,,0.00,,2013-02-19 21:21:00,
2013-02-19 16:32:00,44.0,35.0,29.80,West,274,1.0,4.0,70,0.00,,,0.00,,2013-02-19 21:32:00,
2013-02-19 16:42:00,44.0,35.0,29.80,West,274,1.0,4.0,70,0.00,,,0.00,,2013-02-19 21:42:00,
2013-02-19 16:51:00,43.0,37.0,29.79,West,271,2.0,4.0,78,0.00,,,0.00,,2013-02-19 21:51:00,
2013-02-19 17:02:00,42.0,37.0,29.78,West,259,2.0,4.0,83,0.01,,,0.01,,2013-02-19 22:02:00,
2013-02-19 17:11:00,42.0,37.0,29.78,West,259,2.0,4.0,83,0.01,,,0.01,,2013-02-19 22:11:00,
2013-02-19 17:21:00,42.0,38.0,29.77,West,276,0.0,2.0,85,0.01,,,0.01,,2013-02-19 22:21:00,
2013-02-19 17:32:00,42.0,38.0,29.76,WSW,254,0.0,2.0,87,0.01,,,0.01,,2013-02-19 22:32:00,
2013-02-19 17:42:00,42.0,38.0,29.76,WSW,254,0.0,2.0,87,0.01,,,0.01,,2013-02-19 22:42:00,
2013-02-19 17:52:00,41.0,38.0,29.75,West,259,0.0,4.0,88,0.01,,,0.01,,2013-02-19 22:52:00,
2013-02-19 18:01:00,41.0,38.0,29.74,South,188,0.0,3.0,89,0.01,,,0.02,,2013-02-19 23:01:00,
2013-02-19 18:11:00,41.0,38.0,29.74,South,188,0.0,3.0,89,0.01,,,0.02,,2013-02-19 23:11:00,
2013-02-19 18:21:00,41.0,39.0,29.73,South,188,0.0,2.0,91,0.01,,,0.02,,2013-02-19 23:21:00,
2013-02-19 18:32:00,41.0,39.0,29.72,SW,223,0.0,1.0,92,0.02,,,0.03,,2013-02-19 23:32:00,
2013-02-19 18:42:00,41.0,39.0,29.72,SW,223,0.0,1.0,92,0.02,,,0.03,,2013-02-19 23:42:00,
2013-02-19 18:52:00,40.0,38.0,29.71,West,266,0.0,2.0,94,0.03,,,0.04,,2013-02-19 23:52:00,
2013-02-19 19:01:00,40.0,39.0,29.70,SSE,155,1.0,5.0,95,0.03,,,0.05,,2013-02-20 00:01:00,
2013-02-19 19:11:00,40.0,39.0,29.70,SSE,155,1.0,5.0,95,0.03,,,0.05,,2013-02-20 00:11:00,
2013-02-19 19:21:00,40.0,39.0,29.69,West,259,0.0,2.0,96,0.04,,,0.06,,2013-02-20 00:21:00,
2013-02-19 19:32:00,40.0,39.0,29.68,SSE,167,0.0,4.0,96,0.04,,,0.07,,2013-02-20 00:32:00,
2013-02-19 19:42:00,40.0,39.0,29.68,SSE,167,0.0,4.0,96,0.04,,,0.07,,2013-02-20 00:42:00,
2013-02-19 19:52:00,41.0,40.0,29.66,SSE,148,2.0,3.0,97,0.05,,,0.09,,2013-02-20 00:52:00,
2013-02-19 20:02:00,41.0,40.0,29.65,SW,236,0.0,4.0,98,0.06,,,0.11,,2013-02-20 01:02:00,
2013-02-19 20:11:00,41.0,40.0,29.65,SW,236,0.0,4.0,98,0.06,,,0.11,,2013-02-20 01:11:00,
2013-02-19 20:21:00,41.0,40.0,29.63,SW,217,1.0,3.0,98,0.06,,,0.12,,2013-02-20 01:21:00,
2013-02-19 20:32:00,41.0,41.0,29.62,West,269,0.0,3.0,99,0.06,,,0.13,,2013-02-20 01:32:00,
2013-02-19 20:42:00,41.0,41.0,29.62,West,269,0.0,3.0,99,0.06,,,0.13,,2013-02-20 01:42:00,
2013-02-19 20:52:00,42.0,42.0,29.60,West,268,0.0,1.0,99,0.05,,,0.14,,2013-02-20 01:52:00,
2013-02-19 21:02:00,42.0,42.0,29.60,SW,226,0.0,2.0,100,0.03,,,0.14,,2013-02-20 02:02:00,
2013-02-19 21:11:00,42.0,42.0,29.60,SW,226,0.0,2.0,100,0.03,,,0.14,,2013-02-20 02:11:00,
2013-02-19 21:21:00,42.0,42.0,29.58,NW,321,1.0,2.0,100,0.03,,,0.15,,2013-02-20 02:21:00,
2013-02-19 21:32:00,42.0,42.0,29.59,NW,312,2.0,3.0,100,0.03,,,0.16,,2013-02-20 02:32:00,
2013-02-19 21:42:00,42.0,42.0,29.59,NW,312,2.0,3.0,100,0.03,,,0.16,,2013-02-20 02:42:00,
2013-02-19 21:52:00,42.0,42.0,29.59,NW,312,0.0,2.0,100,0.04,,,0.18,,2013-02-20 02:52:00,
2013-02-19 22:02:00,42.0,42.0,29.58,NW,312,0.0,0.0,100,0.06,,,0.20,,2013-02-20 03:02:00,
2013-02-19 22:12:00,42.0,42.0,29.58,NW,312,0.0,0.0,100,0.06,,,0.20,,2013-02-20 03:12:00,
2013-02-19 22:22:00,42.0,42.0,29.57,NW,312,0.0,0.0,100,0.07,,,0.22,,2013-02-20 03:22:00,
2013-02-19 22:32:00,42.0,42.0,29.58,NW,312,0.0,0.0,100,0.07,,,0.23,,2013-02-20 03:32:00,
2013-02-19 22:42:00,42.0,42.0,29.58,NW,312,0.0,0.0,100,0.07,,,0.23,,2013-02-20 03:42:00,
2013-02-19 22:52:00,41.0,41.0,29.56,NW,312,0.0,0.0,100,0.07,,,0.25,,2013-02-20 03:52:00,
2013-02-19 23:01:00,41.0,41.0,29.55,NW,312,0.0,0.0,100,0.05,,,0.25,,2013-02-20 04:01:00,
2013-02-19 23:11:00,41.0,41.0,29.55,NW,312,0.0,0.0,100,0.05,,,0.25,,2013-02-20 04:11:00,
2013-02-19 23:21:00,41.0,41.0,29.55,NW,312,1.0,2.0,100,0.03,,,0.25,,2013-02-20 04:21:00,
2013-02-19 23:31:00,41.0,41.0,29.55,NW,312,1.0,3.0,100,0.02,,,0.25,,2013-02-20 04:31:00,
2013-02-19 23:42:00,41.0,41.0,29.55,NW,312,1.0,3.0,100,0.02,,,0.25,,2013-02-20 04:42:00,
2013-02-19 23:52:00,40.0,40.0,29.55,NW,312,1.0,2.0,100,0.00,,,0.25,,2013-02-20 04:52:00,